Time,TemperatureF,DewpointF,PressureIn,WindDirection,WindDirectionDegrees,WindSpeedMPH,WindSpeedGustMPH,Humidity,HourlyPrecipIn,Conditions,Clouds,dailyrainin,SoftwareType,DateUTC
2013-01-11 00:03:00,22.0,19.0,30.47,WNW,300,0.0,1.0,89,0.00,,,0.11,,2013-01-11 05:03:00,
2013-01-11 00:13:00,22.0,19.0,30.47,WNW,300,0.0,1.0,89,0.00,,,0.11,,2013-01-11 05:13:00,
2013-01-11 00:22:00,24.0,21.0,30.47,SW,232,0.0,2.0,88,0.00,,,0.11,,2013-01-11 05:22:00,
2013-01-11 00:33:00,24.0,21.0,30.46,SW,232,0.0,0.0,87,0.00,,,0.11,,2013-01-11 05:33:00,
2013-01-11 00:43:00,24.0,21.0,30.46,SW,232,0.0,0.0,87,0.00,,,0.11,,2013-01-11 05:43:00,
2013-01-11 00:53:00,22.0,19.0,30.46,SW,232,0.0,0.0,88,0.00,,,0.11,,2013-01-11 05:53:00,
2013-01-11 01:03:00,22.0,19.0,30.46,SW,232,0.0,1.0,88,0.00,,,0.11,,2013-01-11 06:03:00,
2013-01-11 01:12:00,22.0,19.0,30.46,SW,232,0.0,1.0,88,0.00,,,0.11,,2013-01-11 06:12:00,
2013-01-11 01:22:00,21.0,18.0,30.47,SW,232,0.0,1.0,89,0.00,,,0.11,,2013-01-11 06:22:00,
2013-01-11 01:32:00,22.0,19.0,30.47,WSW,248,0.0,1.0,89,0.00,,,0.11,,2013-01-11 06:32:00,
2013-01-11 01:42:00,22.0,19.0,30.47,WSW,248,0.0,1.0,89,0.00,,,0.11,,2013-01-11 06:42:00,
2013-01-11 01:52:00,21.0,18.0,30.47,WSW,248,0.0,0.0,89,0.00,,,0.10,,2013-01-11 06:52:00,
2013-01-11 02:02:00,21.0,18.0,30.47,WSW,248,0.0,1.0,89,0.00,,,0.10,,2013-01-11 07:02:00,
2013-01-11 02:12:00,20.0,18.0,30.47,WSW,248,0.0,0.0,90,0.00,,,0.10,,2013-01-11 07:12:00,
2013-01-11 02:22:00,20.0,18.0,30.47,WSW,248,0.0,0.0,90,0.00,,,0.10,,2013-01-11 07:22:00,
2013-01-11 02:32:00,20.0,18.0,30.46,WSW,248,0.0,1.0,90,0.00,,,0.10,,2013-01-11 07:32:00,
2013-01-11 02:42:00,20.0,18.0,30.46,WSW,248,0.0,0.0,91,0.00,,,0.06,,2013-01-11 07:42:00,
2013-01-11 02:52:00,20.0,18.0,30.46,WSW,248,0.0,0.0,91,0.00,,,0.06,,2013-01-11 07:52:00,
2013-01-11 03:02:00,20.0,18.0,30.45,WSW,248,0.0,2.0,91,0.00,,,0.06,,2013-01-11 08:02:00,
2013-01-11 03:12:00,19.0,17.0,30.45,WSW,248,0.0,0.0,90,0.00,,,0.06,,2013-01-11 08:12:00,
2013-01-11 03:22:00,19.0,17.0,30.45,WSW,248,0.0,0.0,90,0.00,,,0.06,,2013-01-11 08:22:00,
2013-01-11 03:32:00,19.0,17.0,30.44,WSW,248,0.0,0.0,91,0.00,,,0.06,,2013-01-11 08:32:00,
2013-01-11 03:42:00,19.0,17.0,30.44,WSW,248,0.0,0.0,91,0.00,,,0.06,,2013-01-11 08:42:00,
2013-01-11 03:53:00,18.0,16.0,30.44,WSW,248,0.0,0.0,91,0.00,,,0.04,,2013-01-11 08:53:00,
2013-01-11 04:02:00,18.0,16.0,30.44,WSW,248,0.0,0.0,91,0.00,,,0.04,,2013-01-11 09:02:00,
2013-01-11 04:12:00,18.0,16.0,30.44,WSW,248,0.0,0.0,91,0.00,,,0.04,,2013-01-11 09:12:00,
2013-01-11 04:23:00,17.0,15.0,30.44,WSW,248,0.0,0.0,91,0.00,,,0.04,,2013-01-11 09:23:00,
2013-01-11 04:32:00,17.0,15.0,30.43,WSW,248,0.0,0.0,91,0.00,,,0.04,,2013-01-11 09:32:00,
2013-01-11 04:42:00,17.0,15.0,30.43,WSW,248,0.0,0.0,91,0.00,,,0.04,,2013-01-11 09:42:00,
2013-01-11 04:52:00,17.0,15.0,30.43,WSW,248,0.0,0.0,91,0.00,,,0.04,,2013-01-11 09:52:00,
2013-01-11 05:02:00,16.0,14.0,30.43,WSW,248,0.0,0.0,91,0.00,,,0.04,,2013-01-11 10:02:00,
2013-01-11 05:12:00,16.0,14.0,30.43,WSW,248,0.0,0.0,91,0.00,,,0.04,,2013-01-11 10:12:00,
2013-01-11 05:22:00,16.0,14.0,30.44,WSW,248,0.0,0.0,91,0.00,,,0.04,,2013-01-11 10:22:00,
2013-01-11 05:32:00,17.0,15.0,30.43,WSW,248,0.0,0.0,91,0.00,,,0.04,,2013-01-11 10:32:00,
2013-01-11 05:42:00,17.0,15.0,30.43,WSW,248,0.0,0.0,91,0.00,,,0.04,,2013-01-11 10:42:00,
2013-01-11 05:53:00,18.0,16.0,30.44,WSW,248,0.0,0.0,91,0.00,,,0.03,,2013-01-11 10:53:00,
2013-01-11 06:03:00,17.0,15.0,30.44,WSW,248,0.0,0.0,91,0.00,,,0.03,,2013-01-11 11:03:00,
2013-01-11 06:12:00,17.0,15.0,30.44,WSW,248,0.0,0.0,91,0.00,,,0.03,,2013-01-11 11:12:00,
2013-01-11 06:22:00,17.0,15.0,30.45,WSW,248,0.0,0.0,91,0.00,,,0.03,,2013-01-11 11:22:00,
2013-01-11 06:33:00,17.0,15.0,30.45,West,278,0.0,1.0,91,0.00,,,0.03,,2013-01-11 11:33:00,
2013-01-11 06:42:00,17.0,15.0,30.45,West,278,0.0,1.0,91,0.00,,,0.03,,2013-01-11 11:42:00,
2013-01-11 06:53:00,18.0,16.0,30.45,West,278,0.0,0.0,91,0.00,,,0.03,,2013-01-11 11:53:00,
2013-01-11 07:03:00,17.0,15.0,30.45,West,278,0.0,0.0,91,0.00,,,0.03,,2013-01-11 12:03:00,
2013-01-11 07:12:00,17.0,15.0,30.45,West,278,0.0,0.0,91,0.00,,,0.03,,2013-01-11 12:12:00,
2013-01-11 07:22:00,17.0,15.0,30.46,West,278,0.0,0.0,91,0.00,,,0.03,,2013-01-11 12:22:00,
2013-01-11 07:33:00,16.0,14.0,30.46,West,278,0.0,0.0,90,0.00,,,0.03,,2013-01-11 12:33:00,
2013-01-11 07:42:00,16.0,14.0,30.46,West,278,0.0,0.0,90,0.00,,,0.03,,2013-01-11 12:42:00,
2013-01-11 07:53:00,16.0,14.0,30.46,West,278,0.0,0.0,90,0.00,,,0.03,,2013-01-11 12:53:00,
2013-01-11 08:03:00,16.0,14.0,30.47,West,278,0.0,0.0,90,0.00,,,0.03,,2013-01-11 13:03:00,
2013-01-11 08:13:00,16.0,14.0,30.47,West,278,0.0,0.0,90,0.00,,,0.03,,2013-01-11 13:13:00,
2013-01-11 08:22:00,16.0,14.0,30.47,West,278,0.0,0.0,91,0.00,,,0.03,,2013-01-11 13:22:00,
2013-01-11 08:33:00,17.0,15.0,30.46,West,278,0.0,0.0,91,0.00,,,0.03,,2013-01-11 13:33:00,
2013-01-11 08:42:00,17.0,15.0,30.46,West,278,0.0,0.0,91,0.00,,,0.03,,2013-01-11 13:42:00,
2013-01-11 08:53:00,18.0,16.0,30.46,West,278,0.0,0.0,91,0.00,,,0.03,,2013-01-11 13:53:00,
2013-01-11 09:03:00,20.0,18.0,30.46,West,278,0.0,0.0,92,0.00,,,0.03,,2013-01-11 14:03:00,
2013-01-11 09:12:00,21.0,19.0,30.45,West,278,0.0,0.0,91,0.00,,,0.03,,2013-01-11 14:12:00,
2013-01-11 09:23:00,21.0,19.0,30.45,West,278,0.0,0.0,91,0.00,,,0.03,,2013-01-11 14:23:00,
2013-01-11 09:33:00,22.0,20.0,30.45,West,278,0.0,0.0,91,0.00,,,0.03,,2013-01-11 14:33:00,
2013-01-11 09:43:00,25.0,22.0,30.45,West,278,0.0,0.0,89,0.00,,,0.03,,2013-01-11 14:43:00,
2013-01-11 09:53:00,25.0,22.0,30.45,West,278,0.0,0.0,89,0.00,,,0.03,,2013-01-11 14:53:00,
2013-01-11 10:03:00,26.0,22.0,30.44,West,278,0.0,1.0,84,0.00,,,0.03,,2013-01-11 15:03:00,
2013-01-11 10:13:00,29.0,24.0,30.44,West,278,0.0,2.0,81,0.00,,,0.03,,2013-01-11 15:13:00,
2013-01-11 10:23:00,29.0,24.0,30.44,West,278,0.0,2.0,81,0.00,,,0.03,,2013-01-11 15:23:00,
2013-01-11 10:33:00,29.0,24.0,30.44,West,278,0.0,0.0,80,0.00,,,0.03,,2013-01-11 15:33:00,
2013-01-11 10:43:00,29.0,24.0,30.44,West,278,0.0,0.0,80,0.00,,,0.03,,2013-01-11 15:43:00,
2013-01-11 10:53:00,31.0,25.0,30.42,West,278,0.0,2.0,78,0.00,,,0.03,,2013-01-11 15:53:00,
2013-01-11 11:03:00,32.0,25.0,30.41,West,278,0.0,0.0,74,0.00,,,0.03,,2013-01-11 16:03:00,
2013-01-11 11:12:00,34.0,26.0,30.40,NE,39,0.0,2.0,71,0.00,,,0.03,,2013-01-11 16:12:00,
2013-01-11 11:23:00,34.0,26.0,30.40,NE,39,0.0,2.0,71,0.00,,,0.03,,2013-01-11 16:23:00,
2013-01-11 11:33:00,35.0,26.0,30.39,WNW,300,0.0,2.0,69,0.00,,,0.03,,2013-01-11 16:33:00,
2013-01-11 11:43:00,35.0,26.0,30.37,ENE,69,0.0,0.0,68,0.00,,,0.02,,2013-01-11 16:43:00,
2013-01-11 11:53:00,35.0,26.0,30.37,ENE,69,0.0,0.0,68,0.00,,,0.02,,2013-01-11 16:53:00,
2013-01-11 12:03:00,36.0,26.0,30.37,NNE,25,0.0,2.0,67,0.00,,,0.02,,2013-01-11 17:03:00,
2013-01-11 12:12:00,36.0,26.0,30.35,NE,51,0.0,1.0,68,0.00,,,0.02,,2013-01-11 17:12:00,
2013-01-11 12:22:00,36.0,26.0,30.35,NE,51,0.0,1.0,68,0.00,,,0.02,,2013-01-11 17:22:00,
2013-01-11 12:33:00,36.0,27.0,30.35,WNW,296,0.0,1.0,70,0.00,,,0.02,,2013-01-11 17:33:00,
2013-01-11 12:43:00,36.0,27.0,30.35,WNW,296,0.0,1.0,70,0.00,,,0.02,,2013-01-11 17:43:00,
2013-01-11 12:53:00,36.0,25.0,30.34,SW,229,1.0,2.0,65,0.00,,,0.01,,2013-01-11 17:53:00,
2013-01-11 13:03:00,36.0,25.0,30.34,WNW,294,0.0,4.0,65,0.00,,,0.01,,2013-01-11 18:03:00,
2013-01-11 13:13:00,36.0,25.0,30.34,WNW,294,0.0,4.0,65,0.00,,,0.01,,2013-01-11 18:13:00,
2013-01-11 13:23:00,36.0,26.0,30.35,NNW,347,0.0,3.0,66,0.00,,,0.01,,2013-01-11 18:23:00,
2013-01-11 13:33:00,36.0,26.0,30.33,SSE,155,0.0,3.0,67,0.00,,,0.01,,2013-01-11 18:33:00,
2013-01-11 13:43:00,36.0,26.0,30.33,SSE,155,0.0,3.0,67,0.00,,,0.01,,2013-01-11 18:43:00,
2013-01-11 13:53:00,37.0,25.0,30.33,NNE,26,1.0,3.0,61,0.00,,,0.01,,2013-01-11 18:53:00,
2013-01-11 14:03:00,37.0,24.0,30.34,East,90,0.0,2.0,60,0.00,,,0.01,,2013-01-11 19:03:00,
2013-01-11 14:12:00,37.0,24.0,30.34,East,90,0.0,2.0,60,0.00,,,0.01,,2013-01-11 19:12:00,
2013-01-11 14:22:00,37.0,26.0,30.32,WSW,241,0.0,2.0,63,0.00,,,0.01,,2013-01-11 19:22:00,
2013-01-11 14:32:00,37.0,23.0,30.32,NE,48,1.0,4.0,57,0.00,,,0.01,,2013-01-11 19:32:00,
2013-01-11 14:43:00,37.0,23.0,30.32,NE,48,1.0,4.0,57,0.00,,,0.01,,2013-01-11 19:43:00,
2013-01-11 14:54:00,36.0,25.0,30.32,SSE,168,0.0,3.0,63,0.00,,,0.00,,2013-01-11 19:54:00,
2013-01-11 15:03:00,36.0,23.0,30.32,SSE,155,1.0,3.0,59,0.00,,,0.00,,2013-01-11 20:03:00,
2013-01-11 15:12:00,36.0,23.0,30.32,SSE,155,1.0,3.0,59,0.00,,,0.00,,2013-01-11 20:12:00,
2013-01-11 15:22:00,35.0,23.0,30.31,SE,140,0.0,2.0,60,0.00,,,0.00,,2013-01-11 20:22:00,
2013-01-11 15:33:00,35.0,24.0,30.30,SSW,209,1.0,5.0,63,0.00,,,0.00,,2013-01-11 20:33:00,
2013-01-11 15:43:00,35.0,24.0,30.30,SSW,209,1.0,5.0,63,0.00,,,0.00,,2013-01-11 20:43:00,
2013-01-11 15:53:00,34.0,23.0,30.29,SSE,164,0.0,0.0,64,0.00,,,0.00,,2013-01-11 20:53:00,
2013-01-11 16:03:00,34.0,25.0,30.28,WSW,253,0.0,3.0,69,0.00,,,0.00,,2013-01-11 21:03:00,
2013-01-11 16:12:00,34.0,25.0,30.27,WSW,252,0.0,2.0,68,0.00,,,0.00,,2013-01-11 21:12:00,
2013-01-11 16:23:00,34.0,25.0,30.27,WSW,252,0.0,2.0,68,0.00,,,0.00,,2013-01-11 21:23:00,
2013-01-11 16:33:00,34.0,24.0,30.27,WSW,252,0.0,1.0,67,0.00,,,0.00,,2013-01-11 21:33:00,
2013-01-11 16:42:00,34.0,24.0,30.27,WSW,252,0.0,1.0,67,0.00,,,0.00,,2013-01-11 21:42:00,
2013-01-11 16:53:00,33.0,25.0,30.27,WSW,252,0.0,0.0,71,0.00,,,0.00,,2013-01-11 21:53:00,
2013-01-11 17:02:00,33.0,26.0,30.27,WSW,252,0.0,0.0,74,0.00,,,0.00,,2013-01-11 22:02:00,
2013-01-11 17:12:00,33.0,26.0,30.27,WSW,252,0.0,0.0,75,0.00,,,0.00,,2013-01-11 22:12:00,
2013-01-11 17:22:00,33.0,26.0,30.27,WSW,252,0.0,0.0,75,0.00,,,0.00,,2013-01-11 22:22:00,
2013-01-11 17:33:00,33.0,26.0,30.27,WSW,252,0.0,0.0,76,0.00,,,0.00,,2013-01-11 22:33:00,
2013-01-11 17:42:00,33.0,26.0,30.27,WSW,252,0.0,0.0,76,0.00,,,0.00,,2013-01-11 22:42:00,
2013-01-11 17:53:00,33.0,27.0,30.27,WSW,252,0.0,0.0,77,0.00,,,0.00,,2013-01-11 22:53:00,
2013-01-11 18:02:00,32.0,26.0,30.27,WSW,252,0.0,0.0,79,0.00,,,0.00,,2013-01-11 23:02:00,
2013-01-11 18:13:00,32.0,26.0,30.27,WSW,252,0.0,0.0,79,0.00,,,0.00,,2013-01-11 23:13:00,
2013-01-11 18:23:00,33.0,27.0,30.26,WSW,252,0.0,0.0,77,0.00,,,0.00,,2013-01-11 23:23:00,
2013-01-11 18:32:00,32.0,26.0,30.25,WSW,252,0.0,0.0,79,0.00,,,0.00,,2013-01-11 23:32:00,
2013-01-11 18:43:00,32.0,26.0,30.25,WSW,252,0.0,0.0,79,0.00,,,0.00,,2013-01-11 23:43:00,
2013-01-11 18:53:00,32.0,27.0,30.25,WSW,252,0.0,0.0,80,0.00,,,0.00,,2013-01-11 23:53:00,
2013-01-11 19:02:00,32.0,27.0,30.24,WSW,252,0.0,1.0,82,0.00,,,0.00,,2013-01-12 00:02:00,
2013-01-11 19:12:00,32.0,28.0,30.24,WSW,252,0.0,0.0,86,0.00,,,0.00,,2013-01-12 00:12:00,
2013-01-11 19:23:00,32.0,28.0,30.24,WSW,252,0.0,0.0,86,0.00,,,0.00,,2013-01-12 00:23:00,
2013-01-11 19:33:00,31.0,28.0,30.24,WSW,252,0.0,0.0,87,0.00,,,0.00,,2013-01-12 00:33:00,
2013-01-11 19:43:00,31.0,28.0,30.24,WSW,252,0.0,0.0,87,0.00,,,0.00,,2013-01-12 00:43:00,
2013-01-11 19:53:00,31.0,28.0,30.24,WSW,252,0.0,0.0,87,0.00,,,0.00,,2013-01-12 00:53:00,
2013-01-11 20:02:00,32.0,29.0,30.24,WSW,252,0.0,0.0,87,0.00,,,0.00,,2013-01-12 01:02:00,
2013-01-11 20:12:00,32.0,29.0,30.24,WSW,252,0.0,0.0,87,0.00,,,0.00,,2013-01-12 01:12:00,
2013-01-11 20:22:00,31.0,28.0,30.24,WSW,252,0.0,0.0,89,0.01,,,0.01,,2013-01-12 01:22:00,
2013-01-11 20:33:00,31.0,29.0,30.24,WSW,252,0.0,0.0,91,0.02,,,0.02,,2013-01-12 01:33:00,
2013-01-11 20:43:00,31.0,29.0,30.24,WSW,252,0.0,0.0,91,0.02,,,0.02,,2013-01-12 01:43:00,
2013-01-11 20:53:00,31.0,29.0,30.23,WSW,252,0.0,0.0,91,0.02,,,0.02,,2013-01-12 01:53:00,
2013-01-11 21:02:00,31.0,29.0,30.23,WSW,252,0.0,0.0,92,0.03,,,0.03,,2013-01-12 02:02:00,
2013-01-11 21:12:00,31.0,29.0,30.23,WSW,252,0.0,0.0,92,0.03,,,0.03,,2013-01-12 02:12:00,
2013-01-11 21:22:00,31.0,29.0,30.22,WSW,252,0.0,0.0,93,0.03,,,0.04,,2013-01-12 02:22:00,
2013-01-11 21:33:00,31.0,29.0,30.22,WSW,252,0.0,0.0,93,0.03,,,0.05,,2013-01-12 02:33:00,
2013-01-11 21:43:00,31.0,29.0,30.22,WSW,252,0.0,0.0,93,0.03,,,0.05,,2013-01-12 02:43:00,
2013-01-11 21:53:00,31.0,29.0,30.22,WSW,252,0.0,0.0,93,0.04,,,0.06,,2013-01-12 02:53:00,
2013-01-11 22:03:00,31.0,29.0,30.22,WSW,252,0.0,0.0,93,0.04,,,0.07,,2013-01-12 03:03:00,
2013-01-11 22:12:00,31.0,29.0,30.22,WSW,252,0.0,0.0,93,0.04,,,0.07,,2013-01-12 03:12:00,
2013-01-11 22:22:00,31.0,29.0,30.21,WSW,252,0.0,0.0,93,0.03,,,0.07,,2013-01-12 03:22:00,
2013-01-11 22:33:00,31.0,29.0,30.20,WSW,252,0.0,0.0,94,0.02,,,0.07,,2013-01-12 03:33:00,
2013-01-11 22:43:00,31.0,29.0,30.20,WSW,252,0.0,0.0,94,0.02,,,0.07,,2013-01-12 03:43:00,
2013-01-11 22:53:00,32.0,30.0,30.20,WSW,252,0.0,0.0,94,0.02,,,0.08,,2013-01-12 03:53:00,
2013-01-11 23:02:00,32.0,30.0,30.20,WSW,252,0.0,0.0,94,0.01,,,0.08,,2013-01-12 04:02:00,
2013-01-11 23:12:00,32.0,30.0,30.20,WSW,252,0.0,0.0,94,0.01,,,0.08,,2013-01-12 04:12:00,
2013-01-11 23:22:00,32.0,30.0,30.21,WSW,252,0.0,0.0,94,0.02,,,0.09,,2013-01-12 04:22:00,
2013-01-11 23:32:00,32.0,30.0,30.21,WSW,252,0.0,0.0,94,0.03,,,0.10,,2013-01-12 04:32:00,
2013-01-11 23:42:00,32.0,30.0,30.21,WSW,252,0.0,0.0,94,0.03,,,0.10,,2013-01-12 04:42:00,
2013-01-11 23:52:00,32.0,30.0,30.20,WSW,252,0.0,0.0,94,0.02,,,0.10,,2013-01-12 04:52:00,